Weather History for KBFF - March, 2014

Change the Weather History Date:

Thursday, March 27, 2014

  Actual Average Record
Temperature  
Mean Temperature 39 °F 41 °F  
Max Temperature 48 °F 56 °F 82 °F (1988)
Min Temperature 30 °F 27 °F -10 °F (1899)
Degree Days  
Heating Degree Days 26 24  
Month to date heating degree days 751 737  
Since 1 July heating degree days 5784 5649  
Cooling Degree Days 0 0  
Month to date cooling degree days 0 0  
Year to date cooling degree days 0 0  
Moisture  
Dew Point 30 °F    
Average Humidity 71    
Maximum Humidity 92    
Minimum Humidity 50    
Precipitation  
Precipitation 0.16 in 0.04 in 1.01 in (1975)
Month to date precipitation 0.74 0.83  
Year to date precipitation 2.34 1.84  
Snow  
Snow 1.80 in 0.30 in 9.30 in (1975)
Month to date snowfall 8.2 6.8  
Since 1 July snowfall 59.5 35.2  
Snow Depth 1.00 in    
Sea Level Pressure  
Sea Level Pressure 29.67 in    
Wind  
Wind Speed 7 mph (North)    
Max Wind Speed 15 mph    
Max Gust Speed 20 mph    
Visibility 6 miles    
Events Snow    
T = Trace of Precipitation, MM = Missing Value Source: NWS Daily Summary

Daily Weather History Graph

Daily Weather History Graph

Search for Another Location

Airport or City:

Trip Planner

Search our weather history database for the weather conditions in past years. The results will help you decide how hot, cold, wet, or windy it might be!

Date:

Astronomy

Mar. 27, 2014 Rise Set
Actual Time 6:45 AM MDT 7:14 PM MDT
Civil Twilight 6:17 AM MDT 7:42 PM MDT
Nautical Twilight 5:44 AM MDT 8:15 PM MDT
Astronomical Twilight 5:10 AM MDT 8:49 PM MDT
Moon 4:41 AM MDT (3/27) 4:02 PM MDT (3/27)
Length of Visible Light 13h 24m
Length of Day
12h 28m
Waning Crescent, 12% of the Moon is Illuminated
Mar 27
Waning Crescent
Mar 30
New
Apr 7
First Quarter
Apr 15
Full
Apr 22
Last Quarter

Hourly Weather History & Observations

Time (MDT) Temp. Windchill Dew Point Humidity Pressure Visibility Wind Dir Wind Speed Gust Speed Precip Events Conditions
12:53 AM 41.0 °F 34.7 °F 30.0 °F 65% 29.35 in 10.0 mi NE 10.4 mph 17.3 mph N/A   Overcast
1:53 AM 39.0 °F 31.8 °F 28.0 °F 65% 29.39 in 10.0 mi NE 11.5 mph - N/A   Overcast
2:53 AM 37.0 °F 28.9 °F 28.9 °F 73% 29.41 in 10.0 mi North 12.7 mph - N/A   Overcast
3:24 AM 35.1 °F 27.4 °F 30.0 °F 82% 29.49 in 5.0 mi NNW 10.4 mph - 0.00 in Snow Light Snow
3:53 AM 35.1 °F 27.4 °F 32.0 °F 89% 29.45 in 9.0 mi NW 10.4 mph - 0.00 in Snow Light Snow
4:53 AM 33.1 °F 25.5 °F 30.0 °F 89% 29.48 in 4.0 mi NNW 9.2 mph - 0.00 in Snow Light Snow
5:53 AM 33.1 °F 26.9 °F 30.0 °F 89% 29.53 in 3.0 mi North 6.9 mph - 0.01 in Snow Light Snow
6:01 AM 32.0 °F 24.2 °F 28.9 °F 88% 29.57 in 2.5 mi North 9.2 mph - 0.00 in Snow Light Snow
6:12 AM 30.9 °F 24.3 °F 28.9 °F 92% 29.57 in 1.5 mi NNW 6.9 mph - 0.01 in Snow Light Snow
6:37 AM 30.9 °F 25.2 °F 30.0 °F 96% 29.58 in 1.5 mi North 5.8 mph - 0.03 in Snow Light Snow
6:53 AM 30.9 °F 22.8 °F 28.9 °F 92% 29.57 in 2.0 mi North 9.2 mph - 0.04 in Snow Light Snow
6:55 AM 30.9 °F 23.5 °F 28.0 °F 89% 29.59 in 1.8 mi North 8.1 mph - 0.00 in Snow Light Snow
7:53 AM 30.9 °F 24.3 °F 28.0 °F 89% 29.61 in 1.2 mi North 6.9 mph - 0.03 in Snow Light Snow
8:43 AM 30.9 °F 25.2 °F 28.0 °F 89% 29.63 in 3.0 mi NNW 5.8 mph - 0.01 in Snow Light Snow
8:51 AM 32.0 °F 26.4 °F 28.4 °F 87% 29.64 in 3.0 mi NNW 5.8 mph - 0.01 in Snow Light Snow
8:53 AM 32.0 °F 27.5 °F 28.9 °F 88% 29.64 in 4.0 mi NNW 4.6 mph - 0.01 in Snow Light Snow
9:16 AM 33.1 °F 30.0 °F 30.0 °F 89% 29.65 in 2.0 mi NNW 3.5 mph - 0.00 in Snow Light Snow
9:19 AM 33.1 °F 28.7 °F 30.0 °F 89% 29.65 in 1.8 mi Variable 4.6 mph - 0.00 in Snow Light Snow
9:26 AM 33.1 °F 27.7 °F 28.9 °F 85% 29.65 in 2.5 mi NW 5.8 mph - 0.00 in Snow Light Snow
9:29 AM 33.1 °F 27.7 °F 28.9 °F 85% 29.65 in 3.0 mi NNW 5.8 mph - 0.00 in Snow Light Snow
9:40 AM 33.1 °F 28.7 °F 30.0 °F 89% 29.66 in 3.0 mi NW 4.6 mph - 0.00 in Snow Light Snow
9:53 AM 33.1 °F 30.0 °F 30.0 °F 89% 29.66 in 5.0 mi NW 3.5 mph - 0.00 in   Overcast
10:10 AM 33.1 °F - 30.0 °F 89% 29.67 in 1.8 mi Calm Calm - 0.00 in Snow Light Snow
10:21 AM 34.0 °F - 30.9 °F 89% 29.67 in 2.0 mi Calm Calm - 0.00 in Snow Light Snow
10:41 AM 33.1 °F 30.0 °F 30.9 °F 92% 29.67 in 5.0 mi SW 3.5 mph - 0.01 in Snow Light Snow
10:53 AM 34.0 °F 31.0 °F 30.9 °F 89% 29.68 in 6.0 mi West 3.5 mph - 0.01 in Snow Light Snow
11:07 AM 34.0 °F 31.0 °F 30.9 °F 89% 29.68 in 6.0 mi Variable 3.5 mph - 0.00 in   Overcast
11:25 AM 34.0 °F - 30.9 °F 89% 29.68 in 4.0 mi Calm Calm - 0.00 in Snow Light Snow
11:39 AM 34.0 °F - 30.9 °F 89% 29.69 in 4.0 mi Calm Calm - 0.00 in Snow Light Snow
11:53 AM 34.0 °F - 32.0 °F 92% 29.71 in 6.0 mi Calm Calm - 0.00 in Snow Light Snow
12:53 PM 35.1 °F - 30.9 °F 85% 29.74 in 6.0 mi Calm Calm - 0.00 in Snow Light Snow
1:46 PM 37.9 °F 35.5 °F 32.0 °F 79% 29.72 in 10.0 mi NNW 3.5 mph - 0.00 in   Overcast
1:53 PM 39.0 °F 35.7 °F 32.0 °F 76% 29.74 in 10.0 mi NW 4.6 mph - 0.00 in   Overcast
2:53 PM 44.1 °F 41.5 °F 35.1 °F 71% 29.73 in 10.0 mi NNW 4.6 mph - 0.00 in   Overcast
3:21 PM 44.1 °F 39.5 °F 33.1 °F 65% 29.69 in 10.0 mi NE 8.1 mph - N/A   Partly Cloudy
3:43 PM 44.1 °F 42.5 °F 32.0 °F 63% 29.70 in 10.0 mi ENE 3.5 mph - N/A   Mostly Cloudy
3:53 PM 43.0 °F 41.3 °F 32.0 °F 65% 29.72 in 10.0 mi NNE 3.5 mph - N/A   Mostly Cloudy
4:09 PM 46.0 °F 44.8 °F 30.9 °F 56% 29.69 in 10.0 mi Variable 3.5 mph - N/A   Scattered Clouds
4:53 PM 48.0 °F - 30.0 °F 50% 29.71 in 10.0 mi Variable 4.6 mph - N/A   Clear
5:53 PM 46.9 °F - 30.0 °F 52% 29.72 in 10.0 mi NNE 6.9 mph - N/A   Partly Cloudy
6:53 PM 43.0 °F 40.3 °F 30.0 °F 60% 29.76 in 10.0 mi East 4.6 mph - N/A   Mostly Cloudy
7:53 PM 39.0 °F 33.4 °F 28.9 °F 67% 29.80 in 10.0 mi ESE 8.1 mph - N/A   Clear
8:53 PM 37.9 °F 32.1 °F 28.0 °F 68% 29.84 in 10.0 mi ESE 8.1 mph - N/A   Overcast
9:53 PM 37.0 °F 29.3 °F 27.0 °F 67% 29.87 in 10.0 mi SE 11.5 mph - N/A   Scattered Clouds
10:10 PM 37.0 °F 28.9 °F 28.0 °F 70% 29.83 in 10.0 mi SSE 12.7 mph - N/A   Mostly Cloudy
10:53 PM 36.0 °F 28.0 °F 27.0 °F 70% 29.87 in 10.0 mi ESE 11.5 mph - N/A   Overcast
11:10 PM 35.1 °F 26.9 °F 27.0 °F 72% 29.82 in 10.0 mi ESE 11.5 mph - N/A   Scattered Clouds
11:34 PM 35.1 °F 26.4 °F 27.0 °F 72% 29.82 in 10.0 mi ESE 12.7 mph - N/A   Mostly Cloudy
11:48 PM 35.6 °F 27.1 °F 26.6 °F 70% 29.81 in 10.0 mi SE 12.7 mph - N/A   Scattered Clouds
11:53 PM 36.0 °F 27.1 °F 26.1 °F 67% 29.86 in 10.0 mi SE 13.8 mph - N/A   Partly Cloudy